Location: Bytom
(50.3475°N, 18.9244°E)
Time: 01:49:56
(UTC+02:00)

OTV 5 (USA 277) - Visible Passes

Search period start: 23 October 2019 00:00
Search period end: 01 November 2019 23:00
Orbit: 310 x 324 km, 54.5° (Epoch: 17 October)

Date Brightness Start Highest point End Pass type
(mag) Time Alt. Az. Time Alt. Az. Time Alt. Az.
29 Oct ? 18:21:21 10° SSW 18:22:16 17° S 18:22:16 17° S visible
30 Oct ? 18:35:29 10° SW 18:36:39 22° SW 18:36:39 22° SW visible
31 Oct ? 17:16:38 10° S 17:18:40 19° SE 17:20:03 14° E visible
31 Oct ? 18:50:00 10° WSW 18:50:56 19° WSW 18:50:56 19° WSW visible
01 Nov ? 17:30:28 10° SW 17:33:03 39° SE 17:34:15 24° E visible
01 Nov ? 19:04:42 10° W 19:05:08 13° W 19:05:08 13° W visible
